Вернуться в каталог

STARLINK-35311

АктивенСвязьVLEO
NORAD 66032·PAYLOAD·🇺🇸 United States

Запущен Oct 16, 2025 с Cape Canaveral Space Force Station

Loading…

Ближайшие Пролёты (ближайшие 24 часа)

TLE

СвежийSource: CelesTrak SupGP

Эпоха: Sep 14, 2026, 21:10 UTC

1 66032C 25232AD  26257.88243056  .00006052  00000+0  17887-3 0  2572
2 66032  53.1583 301.6713 0001255  92.9397 149.0536 15.34377091    16

Отслеживайте STARLINK-35311 в реальном времени с AllMySat

Download on the App Store